period_start,C,m1,H,J0,J1,J2,J3,J4,J5,JA,JB,JC,JD,JJ,JK,JN,#
2014-05-05 00:00:47,0.20,2.75,0.00,16.01,23.02,24.36,6.15,31.38,1008.00,2055.01,2422.11,2661.04,2850.13,350.97,329.67,33.57,0000 0000 0000 0000 000000
2014-05-05 00:01:47,0.08,2.75,0.00,16.02,23.02,24.31,6.17,31.54,1007.90,2055.00,2421.89,2660.99,2850.02,350.27,329.19,33.58,0000 0000 0000 0000 000000
2014-05-05 00:02:48,0.09,2.75,0.00,16.04,23.02,24.29,6.25,31.50,1007.92,2055.00,2421.40,2660.69,2849.72,350.87,329.74,33.58,0000 0000 0000 0000 000000
2014-05-05 00:03:48,0.26,2.75,0.00,15.94,23.02,24.35,6.07,31.29,1007.88,2055.00,2421.12,2660.30,2849.32,350.17,329.18,33.59,0000 0000 0000 0000 000000
2014-05-05 00:04:48,0.22,2.75,0.00,15.89,23.02,24.35,6.18,31.50,1007.86,2055.00,2420.87,2660.11,2849.12,349.04,328.25,33.60,0000 0000 0000 0000 000000
2014-05-05 00:05:49,0.16,2.76,0.00,15.85,23.02,24.38,6.28,31.29,1007.86,2055.00,2420.34,2660.02,2849.02,350.86,330.10,33.60,0000 0000 0000 0000 000000
2014-05-05 00:06:49,0.14,2.76,0.00,15.85,23.02,24.43,6.26,31.42,1007.86,2055.00,2420.09,2659.93,2848.59,349.71,328.86,33.61,0000 0000 0000 0000 000000
2014-05-05 00:07:49,0.16,2.76,0.00,15.87,23.02,24.50,6.22,31.50,1007.87,2055.00,2419.73,2659.57,2848.25,350.71,329.77,33.61,0000 0000 0000 0000 000000
2014-05-05 00:08:49,0.25,2.76,0.00,15.94,23.03,24.54,6.01,31.50,1007.87,2055.00,2419.28,2659.21,2848.10,350.14,328.88,33.62,0000 0000 0000 0000 000000
2014-05-05 00:09:49,0.20,2.76,0.00,15.99,23.04,24.52,6.21,31.50,1007.90,2055.00,2419.07,2659.08,2848.00,351.21,330.12,33.63,0000 0000 0000 0000 000000
2014-05-05 00:10:50,0.11,2.76,0.00,16.06,23.04,24.54,6.07,31.50,1007.89,2055.00,2418.58,2659.02,2847.65,349.98,328.94,33.63,0000 0000 0000 0000 000000
2014-05-05 00:11:50,0.18,2.76,0.00,16.11,23.04,24.54,6.24,31.46,1007.88,2055.00,2418.21,2658.92,2847.26,350.32,329.13,33.64,0000 0000 0000 0000 000000
2014-05-05 00:12:50,0.19,2.76,0.00,16.12,23.04,24.53,6.07,31.54,1007.91,2055.00,2418.07,2658.47,2847.10,349.20,328.02,33.64,0000 0000 0000 0000 000000
2014-05-05 00:13:50,0.18,2.76,0.00,16.15,23.04,24.55,6.08,31.67,1007.93,2055.00,2417.76,2658.19,2847.01,349.64,328.46,33.65,0000 0000 0000 0000 000000
2014-05-05 00:14:51,0.16,2.77,0.00,16.13,23.04,24.55,6.04,31.38,1007.88,2055.00,2417.33,2658.08,2846.80,349.28,328.13,33.65,0000 0000 0000 0000 000000
2014-05-05 00:15:51,0.17,2.77,0.00,16.11,23.04,24.56,6.13,31.46,1007.86,2055.00,2417.10,2658.03,2846.33,350.49,329.28,33.66,0000 0000 0000 0000 000000
2014-05-05 00:16:51,0.12,2.77,0.00,16.13,23.04,24.52,6.14,31.46,1007.83,2055.00,2416.73,2657.86,2846.11,348.46,327.35,33.67,0000 0000 0000 0000 000000
2014-05-05 00:17:51,0.22,2.77,0.00,16.20,23.05,24.47,6.15,31.54,1007.84,2055.00,2416.27,2657.42,2846.02,349.20,327.97,33.67,0000 0000 0000 0000 000000
2014-05-05 00:18:52,0.20,2.77,0.00,16.22,23.05,24.46,6.07,31.50,1007.85,2055.00,2416.09,2657.17,2845.79,350.07,328.76,33.68,0000 0000 0000 0000 000000
2014-05-05 00:19:52,0.15,2.77,0.00,16.15,23.05,24.42,6.07,31.42,1007.85,2055.00,2415.76,2657.07,2845.34,349.35,328.16,33.68,0000 0000 0000 0000 000000
2014-05-05 00:20:52,0.20,2.77,0.00,16.04,23.06,24.49,6.01,31.71,1007.85,2055.00,2415.28,2657.02,2845.12,349.32,328.26,33.69,0000 0000 0000 0000 000000
2014-05-05 00:21:52,0.12,2.77,0.00,15.99,23.07,24.46,6.15,31.46,1007.85,2055.00,2415.08,2656.88,2845.02,350.37,329.30,33.70,0000 0000 0000 0000 000000
2014-05-05 00:22:52,0.13,2.77,0.00,15.97,23.07,24.42,6.13,31.46,1007.83,2055.00,2414.92,2656.45,2844.82,349.43,328.44,33.70,0000 0000 0000 0000 000000
2014-05-05 00:23:53,0.22,2.77,0.00,15.94,23.07,24.40,6.10,31.54,1007.84,2055.00,2414.48,2656.16,2844.38,350.17,329.24,33.71,0000 0000 0000 0000 000000
2014-05-05 00:24:53,0.23,2.78,0.00,15.92,23.07,24.43,6.27,31.67,1007.83,2055.00,2414.18,2656.05,2844.14,350.87,329.84,33.71,0000 0000 0000 0000 000000
2014-05-05 00:25:53,0.11,2.78,0.00,15.98,23.07,24.49,6.00,31.54,1007.83,2055.00,2413.92,2656.02,2844.02,349.65,328.63,33.72,0000 0000 0000 0000 000000
2014-05-05 00:26:53,0.11,2.78,0.00,16.04,23.07,24.55,6.22,31.67,1007.84,2055.00,2413.42,2655.86,2843.68,349.66,328.44,33.72,0000 0000 0000 0000 000000
2014-05-05 00:27:54,0.23,2.78,0.00,16.09,23.07,24.58,6.01,31.54,1007.83,2055.00,2413.17,2655.48,2843.28,348.10,327.57,33.73,0000 0000 0000 0000 000000
2014-05-05 00:28:54,0.21,2.78,0.00,16.16,23.07,24.59,6.05,31.54,1007.83,2055.00,2413.05,2655.21,2843.10,349.37,328.49,33.74,0000 0000 0000 0000 000000
2014-05-05 00:29:54,0.13,2.78,0.00,16.21,23.07,24.56,6.15,31.50,1007.83,2055.00,2412.77,2655.07,2843.03,349.84,329.14,33.74,0000 0000 0000 0000 000000
2014-05-05 00:30:54,0.13,2.78,0.00,16.24,23.08,24.54,6.09,31.50,1007.83,2055.00,2412.34,2655.00,2842.92,348.42,327.65,33.75,0000 0000 0000 0000 000000
2014-05-05 00:31:55,0.12,2.78,0.00,16.29,23.09,24.57,6.11,31.58,1007.83,2055.00,2412.13,2654.89,2842.46,350.74,329.31,33.75,0000 0000 0000 0000 000000
2014-05-05 00:32:55,0.17,2.78,0.00,16.31,23.09,24.57,5.99,31.58,1007.83,2055.00,2412.01,2654.48,2842.17,349.46,328.94,33.76,0000 0000 0000 0000 000000
2014-05-05 00:33:55,0.20,2.78,0.00,16.30,23.09,24.53,6.26,31.50,1007.83,2055.00,2411.66,2654.17,2842.05,350.31,328.94,33.77,0000 0000 0000 0000 000000
2014-05-05 00:34:55,0.18,2.79,0.00,16.28,23.09,24.47,6.03,31.42,1007.82,2055.00,2411.26,2654.06,2841.95,350.73,329.31,33.77,0000 0000 0000 0000 000000
2014-05-05 00:35:56,0.13,2.79,0.00,16.30,23.09,24.46,6.09,31.42,1007.81,2055.00,2411.04,2653.99,2841.55,350.66,329.22,33.78,0000 0000 0000 0000 000000
2014-05-05 00:36:56,0.12,2.79,0.00,16.27,23.09,24.48,6.08,31.46,1007.78,2054.99,2410.65,2653.90,2841.22,348.98,327.66,33.78,0000 0000 0000 0000 000000
2014-05-05 00:37:56,0.18,2.79,0.00,16.26,23.10,24.49,6.18,31.46,1007.73,2054.99,2410.31,2653.61,2841.09,350.87,329.43,33.79,0000 0000 0000 0000 000000
2014-05-05 00:38:56,0.19,2.79,0.00,16.25,23.10,24.57,6.13,31.29,1007.67,2054.98,2410.11,2653.25,2841.01,351.39,329.91,33.80,0000 0000 0000 0000 000000
2014-05-05 00:39:57,0.13,2.79,0.00,16.25,23.10,24.61,6.12,31.38,1007.52,2054.98,2410.01,2653.09,2840.92,349.43,328.02,33.80,0000 0000 0000 0000 000000
2014-05-05 00:40:57,0.09,2.79,0.00,16.32,23.11,24.59,6.08,31.50,1007.50,2054.98,2409.73,2653.03,2840.52,349.48,328.00,33.81,0000 0000 0000 0000 000000
2014-05-05 00:41:57,0.17,2.79,0.00,16.32,23.11,24.62,6.17,31.46,1007.45,2054.98,2409.29,2652.98,2840.20,349.77,328.23,33.81,0000 0000 0000 0000 000000
2014-05-05 00:42:57,0.13,2.79,0.00,16.32,23.12,24.63,6.02,31.42,1007.43,2054.99,2409.10,2652.88,2840.07,349.49,327.96,33.82,0000 0000 0000 0000 000000
2014-05-05 00:43:58,0.11,2.79,0.00,16.34,23.12,24.63,6.13,31.38,1007.40,2054.99,2409.00,2652.47,2840.01,349.48,327.93,33.82,0000 0000 0000 0000 000000
2014-05-05 00:44:58,0.16,2.79,0.00,16.38,23.12,24.58,6.08,31.50,1007.38,2054.99,2408.82,2652.19,2839.88,349.73,328.11,33.83,0000 0000 0000 0000 000000
2014-05-05 00:45:58,0.16,2.79,0.00,16.33,23.12,24.56,6.01,31.42,1007.35,2054.98,2408.46,2652.07,2839.50,349.97,328.38,33.84,0000 0000 0000 0000 000000
2014-05-05 00:46:58,0.15,2.80,0.00,16.25,23.12,24.57,6.27,31.38,1007.35,2054.98,2408.18,2652.01,2839.18,350.36,328.41,33.84,0000 0000 0000 0000 000000
2014-05-05 00:47:58,0.12,2.80,0.00,16.13,23.12,24.57,6.20,31.38,1007.34,2054.99,2407.94,2651.98,2839.07,349.63,328.18,33.85,0000 0000 0000 0000 000000
2014-05-05 00:48:59,0.10,2.80,0.00,16.04,23.12,24.63,6.02,31.50,1007.34,2054.99,2407.48,2651.84,2838.99,350.08,328.81,33.85,0000 0000 0000 0000 000000
2014-05-05 00:49:59,0.17,2.80,0.00,16.00,23.13,24.60,6.21,31.54,1007.34,2054.98,2407.18,2651.41,2838.73,351.09,329.81,33.86,0000 0000 0000 0000 000000
2014-05-05 00:50:59,0.22,2.80,0.00,16.03,23.14,24.58,6.17,31.50,1007.33,2054.99,2407.03,2651.15,2838.29,350.32,329.05,33.87,0000 0000 0000 0000 000000
2014-05-05 00:51:59,0.19,2.80,0.00,16.04,23.14,24.55,6.23,31.42,1007.33,2054.99,2406.67,2651.05,2838.10,350.85,329.53,33.87,0000 0000 0000 0000 000000
2014-05-05 00:52:59,0.14,2.80,0.00,16.08,23.14,24.58,6.17,31.42,1007.32,2054.99,2406.25,2650.98,2838.01,350.21,328.88,33.88,0000 0000 0000 0000 000000
2014-05-05 00:54:00,0.11,2.80,0.00,16.13,23.14,24.60,6.12,31.38,1007.28,2054.99,2406.09,2650.79,2837.79,349.10,327.90,33.88,0000 0000 0000 0000 000000
2014-05-05 00:55:00,0.17,2.80,0.00,16.21,23.14,24.60,6.27,31.42,1007.21,2054.96,2405.90,2650.38,2837.34,350.11,328.87,33.89,0000 0000 0000 0000 000000
2014-05-05 00:56:00,0.21,2.80,0.00,16.29,23.14,24.59,6.11,31.46,1007.19,2054.98,2405.44,2650.15,2837.13,349.72,328.69,33.89,0000 0000 0000 0000 000000
2014-05-05 00:57:00,0.20,2.81,0.00,16.30,23.14,24.57,6.14,31.42,1007.12,2054.99,2405.16,2650.05,2837.05,350.07,328.16,33.90,0000 0000 0000 0000 000000
2014-05-05 00:58:00,0.10,2.81,0.00,16.32,23.15,24.55,5.93,31.29,1007.07,2054.96,2404.97,2650.01,2836.93,350.02,328.28,33.91,0000 0000 0000 0000 000000
2014-05-05 00:59:01,0.07,2.81,0.00,16.31,23.15,24.56,6.12,31.42,1007.01,2054.97,2404.56,2649.91,2836.50,349.94,328.27,33.91,0000 0000 0000 0000 000000
2014-05-05 01:00:01,0.19,2.81,0.00,16.30,23.16,24.55,6.14,31.46,1006.92,2054.97,2404.21,2649.71,2836.22,350.01,328.31,33.92,0000 0000 0000 0000 000000
2014-05-05 01:01:01,0.17,2.81,0.00,16.33,23.17,24.57,5.96,31.17,1006.92,2054.96,2404.09,2649.32,2836.07,348.72,327.07,33.92,0000 0000 0000 0000 000000
2014-05-05 01:02:01,0.16,2.81,0.00,16.34,23.17,24.55,6.13,31.46,1006.87,2054.98,2403.94,2649.13,2836.01,350.29,328.51,33.93,0000 0000 0000 0000 000000
2014-05-05 01:03:02,0.08,2.81,0.00,16.31,23.17,24.60,6.19,31.46,1006.88,2054.98,2403.57,2649.05,2835.92,349.68,327.97,33.94,0000 0000 0000 0000 000000
2014-05-05 01:04:02,0.14,2.81,0.00,16.31,23.17,24.61,6.14,31.46,1006.86,2054.98,2403.25,2649.00,2835.53,349.23,327.54,33.94,0000 0000 0000 0000 000000
2014-05-05 01:05:02,0.15,2.81,0.00,16.36,23.17,24.62,6.16,31.42,1006.87,2054.99,2403.09,2648.96,2835.22,350.17,328.37,33.95,0000 0000 0000 0000 000000
2014-05-05 01:06:02,0.09,2.81,0.00,16.44,23.17,24.63,6.23,31.21,1006.85,2054.98,2402.90,2648.55,2835.08,350.30,328.40,33.95,0000 0000 0000 0000 000000
2014-05-05 01:07:02,0.22,2.81,0.00,16.46,23.18,24.65,6.19,31.38,1006.85,2054.98,2402.48,2648.23,2835.01,349.54,328.01,33.96,0000 0000 0000 0000 000000
2014-05-05 01:08:03,0.19,2.82,0.00,16.42,23.18,24.65,6.17,31.46,1006.86,2054.96,2402.20,2648.08,2834.89,350.53,328.64,33.96,0000 0000 0000 0000 000000
2014-05-05 01:09:03,0.07,2.82,0.00,16.43,23.19,24.65,5.97,31.38,1006.85,2054.93,2402.07,2648.03,2834.43,349.36,327.54,33.97,0000 0000 0000 0000 000000
2014-05-05 01:10:03,0.12,2.82,0.00,16.45,23.19,24.65,6.24,31.29,1006.85,2054.94,2401.74,2647.98,2834.19,351.56,329.70,33.98,0000 0000 0000 0000 000000
2014-05-05 01:11:03,0.16,2.82,0.00,16.45,23.19,24.63,6.08,31.21,1006.85,2054.95,2401.30,2647.77,2834.07,349.49,327.49,33.98,0000 0000 0000 0000 000000
2014-05-05 01:12:04,0.18,2.82,0.00,16.46,23.19,24.64,6.17,31.33,1006.85,2054.91,2401.10,2647.39,2833.97,350.74,329.26,33.99,0000 0000 0000 0000 000000
2014-05-05 01:13:04,0.12,2.82,0.00,16.45,23.19,24.68,6.20,31.38,1006.85,2054.83,2401.01,2647.15,2833.57,349.29,328.12,33.99,0000 0000 0000 0000 000000
2014-05-05 01:14:04,0.10,2.82,0.00,16.47,23.20,24.66,6.16,31.17,1006.84,2054.84,2400.61,2647.05,2833.23,350.39,328.45,34.00,0000 0000 0000 0000 000000
2014-05-05 01:15:04,0.19,2.82,0.00,16.52,23.20,24.69,6.03,31.33,1006.79,2054.82,2400.23,2647.00,2833.08,348.99,327.30,34.01,0000 0000 0000 0000 000000
2014-05-05 01:16:05,0.09,2.82,0.00,16.55,23.20,24.70,5.96,31.29,1006.68,2054.85,2400.08,2646.96,2833.02,349.13,327.29,34.01,0000 0000 0000 0000 000000
2014-05-05 01:17:05,0.08,2.82,0.00,16.56,23.21,24.75,6.09,31.29,1006.59,2054.92,2400.02,2646.70,2833.00,350.18,328.07,34.02,0000 0000 0000 0000 000000
2014-05-05 01:18:05,0.16,2.82,0.00,16.51,23.22,24.78,6.05,31.08,1006.53,2054.92,2399.68,2646.30,2832.71,349.77,327.54,34.02,0000 0000 0000 0000 000000
2014-05-05 01:19:05,0.27,2.82,0.00,16.48,23.22,24.76,6.30,31.25,1006.43,2054.93,2399.34,2646.12,2832.30,351.35,328.76,34.03,0000 0000 0000 0000 000000
2014-05-05 01:20:05,0.18,2.83,0.00,16.47,23.22,24.72,6.07,31.29,1006.37,2054.87,2399.13,2646.04,2832.11,349.07,327.00,34.04,0000 0000 0000 0000 000000
2014-05-05 01:21:05,0.01,2.83,0.00,16.46,23.22,24.73,6.11,31.38,1006.37,2054.75,2398.86,2646.00,2832.03,350.47,328.38,34.04,0000 0000 0000 0000 000000
2014-05-05 01:22:06,-0.02,2.83,0.00,16.47,23.22,24.74,6.19,31.38,1006.36,2054.77,2398.36,2645.84,2831.94,350.28,328.20,34.05,0000 0000 0000 0000 000000
2014-05-05 01:23:06,0.25,2.83,0.00,16.50,23.22,24.73,6.10,31.33,1006.36,2054.80,2398.14,2645.48,2831.65,350.01,327.90,34.05,0000 0000 0000 0000 000000
2014-05-05 01:24:06,0.26,2.83,0.00,16.54,23.22,24.72,6.08,31.38,1006.36,2054.72,2398.01,2645.19,2831.32,350.08,327.92,34.06,0000 0000 0000 0000 000000
2014-05-05 01:25:06,0.02,2.83,0.00,16.57,23.24,24.81,6.11,31.46,1006.36,2054.63,2397.57,2645.07,2831.11,349.90,327.72,34.06,0000 0000 0000 0000 000000
2014-05-05 01:26:07,0.11,2.83,0.00,16.59,23.24,24.77,6.12,31.46,1006.36,2054.60,2397.21,2645.02,2831.02,350.51,328.28,34.07,0000 0000 0000 0000 000000
2014-05-05 01:27:07,0.08,2.83,0.00,16.58,23.24,24.76,6.08,31.50,1006.36,2054.54,2397.07,2644.99,2830.89,349.65,327.48,34.08,0000 0000 0000 0000 000000
2014-05-05 01:28:07,0.00,2.83,0.00,16.59,23.24,24.77,6.13,31.38,1006.23,2054.45,2396.87,2644.75,2830.48,350.02,327.77,34.08,0000 0000 0000 0000 000000
2014-05-05 01:29:07,0.11,2.83,0.00,16.58,23.24,24.78,6.13,31.13,1006.22,2054.30,2396.40,2644.33,2830.18,349.35,327.14,34.09,0000 0000 0000 0000 000000
2014-05-05 01:30:07,0.16,2.83,0.00,16.55,23.24,24.81,6.07,31.25,1006.14,2054.24,2396.14,2644.12,2830.06,349.64,327.43,34.09,0000 0000 0000 0000 000000
2014-05-05 01:31:08,0.07,2.83,0.00,16.52,23.25,24.84,6.13,31.29,1005.98,2054.18,2396.04,2644.04,2829.99,350.41,328.14,34.10,0000 0000 0000 0000 000000
2014-05-05 01:32:08,0.00,2.83,0.00,16.54,23.25,24.82,6.26,31.46,1005.94,2054.14,2395.83,2643.99,2829.75,350.42,328.10,34.11,0000 0000 0000 0000 000000
2014-05-05 01:33:08,0.08,2.83,0.00,16.57,23.26,24.77,6.16,31.38,1005.90,2054.12,2395.36,2643.86,2829.32,350.62,327.86,34.11,0000 0000 0000 0000 000000
2014-05-05 01:34:08,0.22,2.83,0.00,16.54,23.27,24.78,6.14,31.42,1005.89,2054.12,2395.12,2643.51,2829.12,350.19,327.88,34.12,0000 0000 0000 0000 000000
2014-05-05 01:35:09,0.17,2.83,0.00,16.48,23.27,24.73,6.10,31.38,1005.89,2054.10,2395.03,2643.21,2829.04,349.63,327.42,34.12,0000 0000 0000 0000 000000
2014-05-05 01:36:09,0.11,2.84,0.00,16.33,23.27,24.77,6.03,31.33,1005.87,2054.10,2394.80,2643.07,2828.97,349.60,327.55,34.13,0000 0000 0000 0000 000000
2014-05-05 01:37:09,0.11,2.84,0.00,16.29,23.27,24.77,6.12,31.29,1005.87,2054.10,2394.32,2643.01,2828.66,349.73,328.18,34.13,0000 0000 0000 0000 000000
2014-05-05 01:38:09,0.18,2.84,0.00,16.26,23.27,24.75,6.09,31.29,1005.87,2054.14,2394.11,2642.97,2828.29,349.54,327.58,34.14,0000 0000 0000 0000 000000
2014-05-05 01:39:10,0.14,2.84,0.00,16.23,23.28,24.74,6.19,31.25,1005.87,2054.15,2393.88,2642.86,2828.11,350.51,328.39,34.15,0000 0000 0000 0000 000000
2014-05-05 01:40:10,0.13,2.84,0.00,16.27,23.29,24.77,6.22,31.33,1005.87,2054.14,2393.38,2642.38,2828.04,349.32,327.45,34.15,0000 0000 0000 0000 000000
2014-05-05 01:41:10,0.24,2.84,0.00,16.34,23.29,24.79,6.02,31.21,1005.86,2054.12,2393.14,2642.14,2827.93,349.48,327.44,34.16,0000 0000 0000 0000 000000
2014-05-05 01:42:10,0.13,2.84,0.00,16.40,23.29,24.78,6.17,31.33,1005.85,2054.10,2393.05,2642.05,2827.53,349.89,327.42,34.16,0000 0000 0000 0000 000000
2014-05-05 01:43:11,0.07,2.84,0.00,16.43,23.29,24.75,6.13,31.29,1005.80,2054.08,2392.79,2642.00,2827.21,350.43,328.20,34.17,0000 0000 0000 0000 000000
2014-05-05 01:44:11,0.10,2.84,0.00,16.41,23.29,24.76,6.17,31.46,1005.76,2054.07,2392.33,2641.85,2827.07,349.98,327.79,34.18,0000 0000 0000 0000 000000
2014-05-05 01:45:11,0.18,2.84,0.00,16.43,23.30,24.73,6.17,31.38,1005.72,2054.03,2392.11,2641.47,2827.03,350.98,328.69,34.18,0000 0000 0000 0000 000000
2014-05-05 01:46:11,0.15,2.84,0.00,16.46,23.30,24.75,6.17,31.29,1005.74,2054.04,2391.96,2641.17,2826.88,350.65,328.34,34.19,0000 0000 0000 0000 000000
2014-05-05 01:47:12,0.14,2.84,0.00,16.50,23.30,24.76,6.22,31.33,1005.72,2054.02,2391.45,2641.06,2826.41,350.08,327.77,34.19,0000 0000 0000 0000 000000
2014-05-05 01:48:12,0.20,2.85,0.00,16.51,23.31,24.82,6.21,31.42,1005.70,2054.01,2391.17,2641.02,2826.15,350.58,328.21,34.20,0000 0000 0000 0000 000000
2014-05-05 01:49:12,0.10,2.85,0.00,16.51,23.32,24.85,6.03,31.33,1005.68,2054.02,2391.04,2640.96,2826.05,349.25,327.37,34.20,0000 0000 0000 0000 000000
2014-05-05 01:50:13,0.08,2.85,0.00,16.52,23.32,24.84,6.01,31.42,1005.58,2054.02,2390.69,2640.64,2826.01,349.68,327.33,34.21,0000 0000 0000 0000 000000
2014-05-05 01:51:13,0.19,2.85,0.00,16.51,23.32,24.82,6.08,31.33,1005.49,2054.01,2390.28,2640.29,2825.73,349.96,327.57,34.22,0000 0000 0000 0000 000000
2014-05-05 01:52:13,0.24,2.85,0.00,16.56,23.32,24.80,6.11,31.38,1005.51,2054.00,2390.10,2640.11,2825.29,350.25,327.79,34.22,0000 0000 0000 0000 000000
2014-05-05 01:53:13,0.16,2.85,0.00,16.53,23.32,24.83,6.15,31.38,1005.50,2054.01,2389.96,2640.03,2825.10,350.30,327.86,34.23,0000 0000 0000 0000 000000
2014-05-05 01:54:14,0.09,2.85,0.00,16.54,23.32,24.82,6.09,31.38,1005.49,2054.01,2389.48,2640.00,2825.03,349.47,327.07,34.23,0000 0000 0000 0000 000000
2014-05-05 01:55:14,0.13,2.85,0.00,16.59,23.33,24.79,6.17,31.33,1005.47,2054.02,2389.17,2639.82,2824.84,350.34,328.11,34.24,0000 0000 0000 0000 000000
2014-05-05 01:56:14,0.17,2.85,0.00,16.60,23.34,24.79,6.07,31.04,1005.47,2054.02,2389.05,2639.38,2824.42,350.53,327.91,34.25,0000 0000 0000 0000 000000
2014-05-05 01:57:14,0.25,2.85,0.00,16.60,23.34,24.79,6.19,31.38,1005.50,2054.03,2388.78,2639.16,2824.16,350.00,327.50,34.25,0000 0000 0000 0000 000000
2014-05-05 01:58:14,0.16,2.86,0.00,16.57,23.34,24.78,6.20,31.33,1005.47,2054.02,2388.41,2639.07,2824.06,350.24,327.88,34.26,0000 0000 0000 0000 000000
2014-05-05 01:59:15,0.12,2.86,0.00,16.57,23.34,24.78,6.08,31.33,1005.47,2054.01,2388.15,2639.02,2823.99,350.43,327.75,34.26,0000 0000 0000 0000 000000
2014-05-05 02:00:15,0.07,2.86,0.00,16.57,23.34,24.86,6.08,31.33,1005.47,2054.01,2388.05,2638.98,2823.88,349.63,327.34,34.27,0000 0000 0000 0000 000000
2014-05-05 02:01:15,0.07,2.86,0.00,16.61,23.35,24.84,6.22,31.46,1005.45,2054.01,2387.72,2638.78,2823.46,350.98,328.28,34.27,0000 0000 0000 0000 000000
2014-05-05 02:02:15,0.22,2.86,0.00,16.63,23.35,24.85,6.20,31.42,1005.45,2054.01,2387.29,2638.37,2823.18,349.68,327.48,34.28,0000 0000 0000 0000 000000
2014-05-05 02:03:16,0.25,2.86,0.00,16.63,23.35,24.90,6.09,31.33,1005.44,2054.01,2387.09,2638.14,2823.06,350.53,327.94,34.29,0000 0000 0000 0000 000000
2014-05-05 02:04:16,0.11,2.86,0.00,16.61,23.37,24.94,6.13,31.42,1005.41,2054.01,2386.85,2638.04,2823.01,349.24,326.74,34.29,0000 0000 0000 0000 000000
2014-05-05 02:05:16,0.10,2.86,0.00,16.61,23.37,24.94,6.07,31.50,1005.42,2054.01,2386.38,2638.00,2822.70,349.82,327.29,34.30,0000 0000 0000 0000 000000
2014-05-05 02:06:16,0.18,2.86,0.00,16.63,23.37,24.87,6.05,31.58,1005.42,2054.00,2386.13,2637.73,2822.29,349.90,327.35,34.30,0000 0000 0000 0000 000000
2014-05-05 02:07:17,0.20,2.86,0.00,16.65,23.37,24.82,6.16,31.29,1005.40,2054.00,2385.87,2637.32,2822.10,350.66,328.04,34.31,0000 0000 0000 0000 000000
2014-05-05 02:08:17,0.20,2.86,0.00,16.65,23.37,24.84,6.08,31.33,1005.39,2054.00,2385.46,2637.13,2822.03,348.83,326.32,34.32,0000 0000 0000 0000 000000
2014-05-05 02:09:17,0.16,2.87,0.00,16.62,23.37,24.88,6.11,31.46,1005.40,2054.00,2385.22,2637.04,2821.91,350.65,328.05,34.32,0000 0000 0000 0000 000000
2014-05-05 02:10:18,0.09,2.87,0.00,16.61,23.37,24.89,6.17,31.29,1005.40,2054.01,2385.07,2637.00,2821.51,349.44,326.93,34.33,0000 0000 0000 0000 000000
2014-05-05 02:11:18,0.12,2.87,0.00,16.61,23.37,24.90,6.18,31.46,1005.39,2054.00,2384.94,2636.91,2821.19,349.32,326.82,34.33,0000 0000 0000 0000 000000
2014-05-05 02:12:18,0.10,2.87,0.00,16.63,23.38,24.92,6.09,31.38,1005.39,2054.00,2384.68,2636.56,2821.07,350.04,327.74,34.34,0000 0000 0000 0000 000000
2014-05-05 02:13:18,0.18,2.87,0.00,16.65,23.38,24.90,6.23,31.17,1005.39,2054.00,2384.31,2636.23,2821.02,350.16,327.38,34.35,0000 0000 0000 0000 000000
2014-05-05 02:14:19,0.19,2.87,0.00,16.67,23.39,24.84,6.27,31.38,1005.39,2054.01,2384.11,2636.08,2820.97,350.16,327.53,34.35,0000 0000 0000 0000 000000
2014-05-05 02:15:19,0.11,2.87,0.00,16.68,23.39,24.86,6.28,31.38,1005.39,2054.00,2383.78,2636.03,2820.54,349.91,327.29,34.36,0000 0000 0000 0000 000000
2014-05-05 02:16:19,0.14,2.87,0.00,16.68,23.39,24.90,6.05,31.38,1005.39,2054.00,2383.35,2635.99,2820.20,350.14,327.27,34.36,0000 0000 0000 0000 000000
2014-05-05 02:17:19,0.16,2.87,0.00,16.69,23.39,24.94,6.09,31.29,1005.39,2054.00,2383.11,2635.86,2820.07,349.91,327.29,34.37,0000 0000 0000 0000 000000
2014-05-05 02:18:20,0.12,2.87,0.00,16.72,23.40,24.91,6.04,31.29,1005.39,2054.00,2382.60,2635.40,2819.94,349.60,326.81,34.37,0000 0000 0000 0000 000000
2014-05-05 02:19:20,0.28,2.87,0.00,16.72,23.40,24.89,6.13,31.13,1005.39,2054.01,2382.22,2635.15,2819.58,350.74,328.04,34.38,0000 0000 0000 0000 000000
2014-05-05 02:20:20,0.23,2.88,0.00,16.72,23.41,24.88,6.14,31.25,1005.39,2054.01,2382.06,2635.05,2819.26,349.64,327.25,34.39,0000 0000 0000 0000 000000
2014-05-05 02:21:21,0.11,2.88,0.00,16.70,23.42,24.88,6.17,31.33,1005.39,2054.00,2381.70,2635.01,2819.09,350.14,327.47,34.39,0000 0000 0000 0000 000000
2014-05-05 02:22:21,0.10,2.88,0.00,16.69,23.42,24.89,6.08,31.38,1005.39,2054.00,2381.29,2634.78,2819.02,350.13,327.49,34.40,0000 0000 0000 0000 000000
2014-05-05 02:23:21,0.18,2.88,0.00,16.71,23.42,24.92,6.02,31.33,1005.39,2054.01,2381.10,2634.36,2818.84,350.16,327.49,34.40,0000 0000 0000 0000 000000
2014-05-05 02:24:21,0.20,2.88,0.00,16.68,23.42,24.90,6.17,31.46,1005.37,2054.01,2380.84,2634.13,2818.41,348.87,326.30,34.41,0000 0000 0000 0000 000000
2014-05-05 02:25:21,0.20,2.88,0.00,16.66,23.42,24.88,6.18,31.54,1005.38,2054.00,2380.36,2634.04,2818.15,350.67,328.02,34.42,0000 0000 0000 0000 000000
2014-05-05 02:26:22,0.15,2.88,0.00,16.65,23.42,24.94,6.21,31.50,1005.37,2054.00,2380.15,2633.99,2818.05,350.44,327.81,34.42,0000 0000 0000 0000 000000
2014-05-05 02:27:22,0.07,2.88,0.00,16.66,23.42,24.95,6.12,31.46,1005.37,2054.00,2380.05,2633.88,2817.98,350.67,328.02,34.43,0000 0000 0000 0000 000000
2014-05-05 02:28:22,0.09,2.88,0.00,16.65,23.43,24.95,5.95,31.42,1005.36,2054.00,2379.97,2633.49,2817.68,349.49,326.94,34.43,0000 0000 0000 0000 000000
2014-05-05 02:29:23,0.19,2.88,0.00,16.63,23.44,24.95,6.22,31.25,1005.32,2054.00,2379.55,2633.19,2817.27,350.76,328.12,34.44,0000 0000 0000 0000 000000
2014-05-05 02:30:23,0.23,2.89,0.00,16.65,23.44,24.92,5.93,31.33,1005.32,2054.00,2379.20,2633.07,2817.09,349.33,326.76,34.44,0000 0000 0000 0000 000000
2014-05-05 02:31:23,0.13,2.89,0.00,16.67,23.45,24.96,6.02,31.25,1005.33,2054.00,2379.07,2633.01,2817.02,349.76,327.11,34.45,0000 0000 0000 0000 000000
2014-05-05 02:32:23,0.05,2.89,0.00,16.71,23.45,24.98,6.00,31.46,1005.27,2054.00,2378.90,2632.97,2816.97,349.38,326.74,34.46,0000 0000 0000 0000 000000
2014-05-05 02:33:24,0.05,2.89,0.00,16.74,23.45,24.98,6.15,31.33,1005.21,2054.00,2378.83,2632.83,2816.77,350.61,327.98,34.46,0000 0000 0000 0000 000000
2014-05-05 02:34:24,0.13,2.89,0.00,16.72,23.45,25.00,6.21,31.38,1005.22,2054.00,2378.46,2632.53,2816.38,351.20,328.39,34.47,0000 0000 0000 0000 000000
2014-05-05 02:35:24,0.23,2.89,0.00,16.73,23.45,24.99,6.23,31.38,1005.22,2054.00,2378.18,2632.22,2816.15,349.75,327.03,34.47,0000 0000 0000 0000 000000
2014-05-05 02:36:25,0.18,2.89,0.00,16.73,23.46,24.96,6.08,31.21,1005.14,2054.00,2378.06,2632.08,2816.05,349.96,326.82,34.48,0000 0000 0000 0000 000000